Time,TemperatureF,DewpointF,PressureIn,WindDirection,WindDirectionDegrees,WindSpeedMPH,WindSpeedGustMPH,Humidity,HourlyPrecipIn,Conditions,Clouds,dailyrainin,SolarRadiationWatts/m^2,SoftwareType,DateUTC
2013-01-31 00:02:00,23.0,18.3,30.05,South,178,3.5,3.5,82,0.00,CLR,,0.00,0.0,WeatherDisplay:10.37,2013-01-31 06:02:00,
2013-01-31 00:07:00,23.0,18.3,30.05,SSW,195,1.1,1.1,82,0.00,CLR,,0.00,0.0,WeatherDisplay:10.37,2013-01-31 06:07:00,
2013-01-31 00:12:00,23.0,18.3,30.05,SSW,195,2.3,2.3,82,0.00,CLR,,0.00,0.0,WeatherDisplay:10.37,2013-01-31 06:12:00,
2013-01-31 00:17:00,22.8,18.1,30.05,South,180,4.6,4.6,82,0.00,CLR,,0.00,0.0,WeatherDisplay:10.37,2013-01-31 06:17:00,
2013-01-31 00:22:00,22.8,18.1,30.05,South,172,4.6,4.6,82,0.00,CLR,,0.00,0.0,WeatherDisplay:10.37,2013-01-31 06:22:00,
2013-01-31 00:27:00,22.8,18.1,30.05,South,182,4.0,4.0,82,0.00,CLR,,0.00,0.0,WeatherDisplay:10.37,2013-01-31 06:27:00,
2013-01-31 00:32:00,22.9,18.2,30.05,South,171,4.0,4.0,82,0.00,CLR,,0.00,0.0,WeatherDisplay:10.37,2013-01-31 06:32:00,
2013-01-31 00:37:00,23.0,18.3,30.05,South,184,6.9,6.9,82,0.00,CLR,,0.00,0.0,WeatherDisplay:10.37,2013-01-31 06:37:00,
2013-01-31 00:42:00,23.1,18.4,30.05,South,172,5.8,5.8,82,0.00,CLR,,0.00,0.0,WeatherDisplay:10.37,2013-01-31 06:42:00,
2013-01-31 00:47:00,23.1,18.4,30.05,South,174,5.0,5.0,82,0.00,CLR,,0.00,0.0,WeatherDisplay:10.37,2013-01-31 06:47:00,
2013-01-31 00:52:00,23.2,18.5,30.05,SSW,211,4.6,4.6,82,0.00,CLR,,0.00,0.0,WeatherDisplay:10.37,2013-01-31 06:52:00,
2013-01-31 00:57:00,23.3,18.6,30.04,SSW,192,4.6,4.6,82,0.00,CLR,,0.00,0.0,WeatherDisplay:10.37,2013-01-31 06:57:00,
2013-01-31 01:02:00,23.4,18.4,30.04,SSW,194,3.5,3.5,81,0.00,CLR,,0.00,0.0,WeatherDisplay:10.37,2013-01-31 07:02:00,
2013-01-31 01:07:00,23.6,18.6,30.05,SSW,192,5.0,5.0,81,0.00,CLR,,0.00,0.0,WeatherDisplay:10.37,2013-01-31 07:07:00,
2013-01-31 01:12:00,23.7,18.7,30.05,SSW,207,6.9,6.9,81,0.00,CLR,,0.00,0.0,WeatherDisplay:10.37,2013-01-31 07:12:00,
2013-01-31 01:17:00,23.9,18.9,30.05,South,188,5.8,5.8,81,0.00,CLR,,0.00,0.0,WeatherDisplay:10.37,2013-01-31 07:17:00,
2013-01-31 01:22:00,24.1,18.8,30.04,South,180,4.0,4.0,80,0.00,CLR,,0.00,0.0,WeatherDisplay:10.37,2013-01-31 07:22:00,
2013-01-31 01:27:00,24.2,18.9,30.05,South,187,4.6,4.6,80,0.00,CLR,,0.00,0.0,WeatherDisplay:10.37,2013-01-31 07:27:00,
2013-01-31 01:32:00,24.3,18.7,30.04,South,176,5.8,5.8,79,0.00,CLR,,0.00,0.0,WeatherDisplay:10.37,2013-01-31 07:32:00,
2013-01-31 01:37:00,24.4,18.8,30.04,SW,215,5.0,5.0,79,0.00,CLR,,0.00,0.0,WeatherDisplay:10.37,2013-01-31 07:37:00,
2013-01-31 01:42:00,24.5,18.9,30.05,SW,215,5.8,5.8,79,0.00,CLR,,0.00,0.0,WeatherDisplay:10.37,2013-01-31 07:42:00,
2013-01-31 01:47:00,24.7,18.8,30.05,WSW,237,5.8,5.8,78,0.00,CLR,,0.00,0.0,WeatherDisplay:10.37,2013-01-31 07:47:00,
2013-01-31 01:52:00,24.8,18.9,30.04,SW,220,5.8,5.8,78,0.00,CLR,,0.00,0.0,WeatherDisplay:10.37,2013-01-31 07:52:00,
2013-01-31 01:58:00,24.9,19.0,30.05,SSW,200,3.5,3.5,78,0.00,CLR,,0.00,0.0,WeatherDisplay:10.37,2013-01-31 07:58:00,
2013-01-31 02:03:00,24.9,19.0,30.05,South,182,6.9,6.9,78,0.00,CLR,,0.00,0.0,WeatherDisplay:10.37,2013-01-31 08:03:00,
2013-01-31 02:08:00,24.9,19.0,30.05,SSW,193,6.0,6.0,78,0.00,CLR,,0.00,0.0,WeatherDisplay:10.37,2013-01-31 08:08:00,
2013-01-31 02:13:00,24.9,19.0,30.05,SSW,192,3.5,3.5,78,0.00,CLR,,0.00,0.0,WeatherDisplay:10.37,2013-01-31 08:13:00,
2013-01-31 02:18:00,24.8,18.9,30.05,SW,214,4.6,4.6,78,0.00,CLR,,0.00,0.0,WeatherDisplay:10.37,2013-01-31 08:18:00,
2013-01-31 02:23:00,24.8,18.9,30.04,SW,227,6.0,6.0,78,0.00,CLR,,0.00,0.0,WeatherDisplay:10.37,2013-01-31 08:23:00,
2013-01-31 02:28:00,24.8,18.9,30.04,SSW,192,4.6,4.6,78,0.00,CLR,,0.00,0.0,WeatherDisplay:10.37,2013-01-31 08:28:00,
2013-01-31 02:33:00,24.8,18.6,30.05,South,178,4.0,4.0,77,0.00,CLR,,0.00,0.0,WeatherDisplay:10.37,2013-01-31 08:33:00,
2013-01-31 02:38:00,24.9,18.7,30.05,South,184,3.5,3.5,77,0.00,CLR,,0.00,0.0,WeatherDisplay:10.37,2013-01-31 08:38:00,
2013-01-31 02:43:00,24.9,18.7,30.05,SSW,211,3.5,3.5,77,0.00,CLR,,0.00,0.0,WeatherDisplay:10.37,2013-01-31 08:43:00,
2013-01-31 02:48:00,24.9,18.7,30.05,SSW,207,3.5,3.5,77,0.00,CLR,,0.00,0.0,WeatherDisplay:10.37,2013-01-31 08:48:00,
2013-01-31 02:53:00,24.9,18.4,30.05,SSW,207,3.5,3.5,76,0.00,CLR,,0.00,0.0,WeatherDisplay:10.37,2013-01-31 08:53:00,
2013-01-31 02:58:00,24.8,18.3,30.06,SSW,211,3.5,0.0,76,0.00,CLR,,0.00,0.0,WeatherDisplay:10.37,2013-01-31 08:58:00,
2013-01-31 03:03:00,24.8,18.3,30.05,SSW,211,2.3,2.3,76,0.00,CLR,,0.00,0.0,WeatherDisplay:10.37,2013-01-31 09:03:00,
2013-01-31 03:08:00,24.7,18.5,30.05,SSW,207,2.3,2.3,77,0.00,CLR,,0.00,0.0,WeatherDisplay:10.37,2013-01-31 09:08:00,
2013-01-31 03:13:00,24.6,18.4,30.05,South,191,3.5,3.5,77,0.00,CLR,,0.00,0.0,WeatherDisplay:10.37,2013-01-31 09:13:00,
2013-01-31 03:18:00,24.5,18.3,30.04,South,186,3.5,3.5,77,0.00,CLR,,0.00,0.0,WeatherDisplay:10.37,2013-01-31 09:18:00,
2013-01-31 03:23:00,24.4,18.2,30.04,South,177,3.5,3.5,77,0.00,CLR,,0.00,0.0,WeatherDisplay:10.37,2013-01-31 09:23:00,
2013-01-31 03:28:00,24.4,18.2,30.05,WSW,250,2.3,2.3,77,0.00,CLR,,0.00,0.0,WeatherDisplay:10.37,2013-01-31 09:28:00,
2013-01-31 03:33:00,24.2,18.3,30.04,South,182,3.5,3.5,78,0.00,CLR,,0.00,0.0,WeatherDisplay:10.37,2013-01-31 09:33:00,
2013-01-31 03:38:00,24.1,18.2,30.04,SW,223,5.0,5.0,78,0.00,CLR,,0.00,0.0,WeatherDisplay:10.37,2013-01-31 09:38:00,
2013-01-31 03:43:00,24.2,18.3,30.05,SSW,199,3.5,3.5,78,0.00,CLR,,0.00,0.0,WeatherDisplay:10.37,2013-01-31 09:43:00,
2013-01-31 03:48:00,24.2,18.3,30.04,SSW,208,2.3,2.3,78,0.00,CLR,,0.00,0.0,WeatherDisplay:10.37,2013-01-31 09:48:00,
2013-01-31 03:53:00,24.3,18.4,30.04,SSW,208,2.3,2.3,78,0.00,CLR,,0.00,0.0,WeatherDisplay:10.37,2013-01-31 09:53:00,
2013-01-31 03:58:00,24.2,18.3,30.04,SSW,208,1.1,0.0,78,0.00,CLR,,0.00,0.0,WeatherDisplay:10.37,2013-01-31 09:58:00,
2013-01-31 04:03:00,24.0,18.1,30.04,SSW,208,0.0,0.0,78,0.00,CLR,,0.00,0.0,WeatherDisplay:10.37,2013-01-31 10:03:00,
2013-01-31 04:08:00,23.8,17.9,30.04,SW,223,1.0,1.0,78,0.00,CLR,,0.00,0.0,WeatherDisplay:10.37,2013-01-31 10:08:00,
2013-01-31 04:13:00,23.6,17.7,30.04,NW,315,3.5,3.5,78,0.00,CLR,,0.00,0.0,WeatherDisplay:10.37,2013-01-31 10:13:00,
2013-01-31 04:18:00,23.4,17.8,30.03,NW,315,2.3,2.3,79,0.00,CLR,,0.00,0.0,WeatherDisplay:10.37,2013-01-31 10:18:00,
2013-01-31 04:23:00,23.3,17.7,30.04,NW,315,2.3,2.3,79,0.00,CLR,,0.00,0.0,WeatherDisplay:10.37,2013-01-31 10:23:00,
2013-01-31 04:28:00,23.2,17.9,30.04,West,278,4.0,4.0,80,0.00,CLR,,0.00,0.0,WeatherDisplay:10.37,2013-01-31 10:28:00,
2013-01-31 04:33:00,23.3,18.3,30.05,WNW,295,3.5,3.5,81,0.00,CLR,,0.00,0.0,WeatherDisplay:10.37,2013-01-31 10:33:00,
2013-01-31 04:38:00,23.7,18.7,30.05,West,279,3.5,3.5,81,0.00,CLR,,0.00,0.0,WeatherDisplay:10.37,2013-01-31 10:38:00,
2013-01-31 04:43:00,24.2,18.9,30.05,NW,321,3.5,3.5,80,0.00,CLR,,0.00,0.0,WeatherDisplay:10.37,2013-01-31 10:43:00,
2013-01-31 04:48:00,24.6,19.3,30.05,WNW,287,3.5,3.5,80,0.00,CLR,,0.00,0.0,WeatherDisplay:10.37,2013-01-31 10:48:00,
2013-01-31 04:53:00,24.9,19.3,30.05,WNW,286,6.0,6.0,79,0.00,CLR,,0.00,0.0,WeatherDisplay:10.37,2013-01-31 10:53:00,
2013-01-31 04:58:00,25.3,19.7,30.05,WNW,284,5.8,5.8,79,0.00,CLR,,0.00,0.0,WeatherDisplay:10.37,2013-01-31 10:58:00,
2013-01-31 05:03:00,25.6,19.7,30.05,NW,315,4.0,4.0,78,0.00,CLR,,0.00,0.0,WeatherDisplay:10.37,2013-01-31 11:03:00,
2013-01-31 05:08:00,26.1,20.2,30.05,West,278,9.2,9.2,78,0.00,CLR,,0.00,0.0,WeatherDisplay:10.37,2013-01-31 11:08:00,
2013-01-31 05:13:00,26.6,20.7,30.05,West,281,9.2,9.2,78,0.00,CLR,,0.00,0.0,WeatherDisplay:10.37,2013-01-31 11:13:00,
2013-01-31 05:18:00,27.3,21.0,30.05,WNW,286,5.8,6.5,77,0.00,CLR,,0.00,0.0,WeatherDisplay:10.37,2013-01-31 11:18:00,
2013-01-31 05:23:00,27.7,21.1,30.05,West,262,5.0,5.0,76,0.00,CLR,,0.00,0.0,WeatherDisplay:10.37,2013-01-31 11:23:00,
2013-01-31 05:28:00,27.9,21.3,30.05,West,279,4.0,4.0,76,0.00,CLR,,0.00,0.0,WeatherDisplay:10.37,2013-01-31 11:28:00,
2013-01-31 05:33:00,28.0,21.1,30.05,WNW,290,5.8,5.8,75,0.00,CLR,,0.00,0.0,WeatherDisplay:10.37,2013-01-31 11:33:00,
2013-01-31 05:38:00,28.0,21.1,30.05,West,267,7.0,7.0,75,0.00,CLR,,0.00,0.0,WeatherDisplay:10.37,2013-01-31 11:38:00,
2013-01-31 05:43:00,28.1,21.2,30.05,West,276,6.0,6.0,75,0.00,CLR,,0.00,0.0,WeatherDisplay:10.37,2013-01-31 11:43:00,
2013-01-31 05:48:00,28.2,21.3,30.05,West,274,5.0,5.0,75,0.00,CLR,,0.00,0.0,WeatherDisplay:10.37,2013-01-31 11:48:00,
2013-01-31 05:53:00,28.3,21.4,30.06,West,277,5.8,5.8,75,0.00,CLR,,0.00,0.0,WeatherDisplay:10.37,2013-01-31 11:53:00,
2013-01-31 05:58:00,28.3,21.4,30.06,NW,304,5.8,5.8,75,0.00,CLR,,0.00,0.0,WeatherDisplay:10.37,2013-01-31 11:58:00,
2013-01-31 06:03:00,28.4,21.8,30.06,West,263,8.1,8.1,76,0.00,CLR,,0.00,0.0,WeatherDisplay:10.37,2013-01-31 12:03:00,
2013-01-31 06:08:00,28.4,21.8,30.06,WNW,290,3.5,3.5,76,0.00,CLR,,0.00,0.0,WeatherDisplay:10.37,2013-01-31 12:08:00,
2013-01-31 06:13:00,28.5,21.9,30.06,WNW,303,5.8,5.8,76,0.00,CLR,,0.00,0.0,WeatherDisplay:10.37,2013-01-31 12:13:00,
2013-01-31 06:18:00,28.7,22.1,30.06,WNW,296,5.8,5.8,76,0.00,CLR,,0.00,0.0,WeatherDisplay:10.37,2013-01-31 12:18:00,
2013-01-31 06:23:00,28.8,21.9,30.06,West,271,3.5,3.5,75,0.00,CLR,,0.00,0.0,WeatherDisplay:10.37,2013-01-31 12:23:00,
2013-01-31 06:28:00,28.9,22.0,30.05,West,279,5.0,5.0,75,0.00,CLR,,0.00,0.0,WeatherDisplay:10.37,2013-01-31 12:28:00,
2013-01-31 06:33:00,28.9,22.0,30.06,WNW,294,6.9,6.9,75,0.00,CLR,,0.00,0.0,WeatherDisplay:10.37,2013-01-31 12:33:00,
2013-01-31 06:38:00,28.8,21.9,30.06,WNW,302,5.0,5.0,75,0.00,CLR,,0.00,0.0,WeatherDisplay:10.37,2013-01-31 12:38:00,
2013-01-31 06:43:00,28.7,22.1,30.07,West,273,5.8,5.8,76,0.00,CLR,,0.00,0.0,WeatherDisplay:10.37,2013-01-31 12:43:00,
2013-01-31 06:48:00,28.7,22.1,30.07,WNW,287,8.1,8.1,76,0.00,CLR,,0.00,0.0,WeatherDisplay:10.37,2013-01-31 12:48:00,
2013-01-31 06:53:00,28.6,22.0,30.07,West,281,3.5,3.7,76,0.00,CLR,,0.00,0.0,WeatherDisplay:10.37,2013-01-31 12:53:00,
2013-01-31 06:58:00,28.6,22.3,30.07,WNW,288,4.0,4.0,77,0.00,CLR,,0.00,0.0,WeatherDisplay:10.37,2013-01-31 12:58:00,
2013-01-31 07:03:00,28.5,22.2,30.07,WNW,285,4.0,4.0,77,0.00,CLR,,0.00,0.0,WeatherDisplay:10.37,2013-01-31 13:03:00,
2013-01-31 07:08:00,28.4,22.1,30.08,WNW,290,3.5,3.5,77,0.00,CLR,,0.00,0.0,WeatherDisplay:10.37,2013-01-31 13:08:00,
2013-01-31 07:13:00,28.3,22.0,30.08,NW,318,3.5,3.5,77,0.00,CLR,,0.00,0.0,WeatherDisplay:10.37,2013-01-31 13:13:00,
2013-01-31 07:18:00,28.1,21.8,30.08,WNW,298,3.5,3.5,77,0.00,CLR,,0.00,0.0,WeatherDisplay:10.37,2013-01-31 13:18:00,
2013-01-31 07:23:00,28.0,21.7,30.09,NW,304,3.5,3.5,77,0.00,CLR,,0.00,0.0,WeatherDisplay:10.37,2013-01-31 13:23:00,
2013-01-31 07:28:00,27.9,21.9,30.09,NW,308,3.5,3.5,78,0.00,CLR,,0.00,0.0,WeatherDisplay:10.37,2013-01-31 13:28:00,
2013-01-31 07:33:00,27.8,21.8,30.09,NW,316,4.0,4.0,78,0.00,CLR,,0.00,0.0,WeatherDisplay:10.37,2013-01-31 13:33:00,
2013-01-31 07:38:00,27.8,22.1,30.10,NW,320,2.3,2.3,79,0.00,OVC,,0.00,5.0,WeatherDisplay:10.37,2013-01-31 13:38:00,
2013-01-31 07:43:00,27.8,22.1,30.10,NW,317,3.5,3.5,79,0.00,CLR,,0.00,9.0,WeatherDisplay:10.37,2013-01-31 13:43:00,
2013-01-31 07:48:00,27.8,22.1,30.10,NW,326,4.6,4.6,79,0.00,SCT,,0.00,14.0,WeatherDisplay:10.37,2013-01-31 13:48:00,
2013-01-31 07:53:00,28.0,22.3,30.10,NNW,333,5.8,5.8,79,0.00,SCT,,0.00,19.0,WeatherDisplay:10.37,2013-01-31 13:53:00,
2013-01-31 07:58:00,28.2,22.5,30.11,NNW,331,4.6,4.6,79,0.00,SCT,,0.00,21.0,WeatherDisplay:10.37,2013-01-31 13:58:00,
2013-01-31 08:03:00,28.3,22.6,30.11,NNW,336,6.9,6.9,79,0.00,BKN,,0.00,25.0,WeatherDisplay:10.37,2013-01-31 14:03:00,
2013-01-31 08:08:00,28.5,22.8,30.12,NW,318,5.8,5.8,79,0.00,SCT,,0.00,33.0,WeatherDisplay:10.37,2013-01-31 14:08:00,
2013-01-31 08:13:00,28.7,23.0,30.12,NNW,330,6.9,6.9,79,0.00,SCT,,0.00,37.0,WeatherDisplay:10.37,2013-01-31 14:13:00,
2013-01-31 08:18:00,28.8,23.1,30.13,NNW,331,5.8,5.8,79,0.00,BKN,,0.00,40.0,WeatherDisplay:10.37,2013-01-31 14:18:00,
2013-01-31 08:23:00,28.9,22.9,30.13,NNW,327,6.9,6.9,78,0.00,BKN,,0.00,47.0,WeatherDisplay:10.37,2013-01-31 14:23:00,
2013-01-31 08:28:00,29.0,23.3,30.13,NNW,331,6.9,6.9,79,0.00,BKN,,0.00,47.0,WeatherDisplay:10.37,2013-01-31 14:28:00,
2013-01-31 08:33:00,29.2,23.2,30.14,NNW,339,7.0,7.0,78,0.00,BKN,,0.00,42.0,WeatherDisplay:10.37,2013-01-31 14:33:00,
2013-01-31 08:38:00,29.2,23.2,30.14,North,355,6.9,6.9,78,0.00,BKN,,0.00,30.0,WeatherDisplay:10.37,2013-01-31 14:38:00,
2013-01-31 08:43:00,29.2,23.2,30.15,North,355,8.1,8.1,78,0.00,BKN,,0.00,30.0,WeatherDisplay:10.37,2013-01-31 14:43:00,
2013-01-31 08:48:00,29.2,23.2,30.15,NNW,334,5.8,5.8,78,0.00,BKN,,0.00,42.0,WeatherDisplay:10.37,2013-01-31 14:48:00,
2013-01-31 08:53:00,29.2,23.2,30.15,North,360,11.5,11.5,78,0.00,BKN,,0.00,51.0,WeatherDisplay:10.37,2013-01-31 14:53:00,
2013-01-31 08:58:00,29.1,23.4,30.16,WNW,300,7.0,7.0,79,0.00,BKN,,0.00,69.0,WeatherDisplay:10.37,2013-01-31 14:58:00,
2013-01-31 09:03:00,29.1,23.4,30.16,NNW,329,5.0,5.0,79,0.00,BKN,,0.00,62.0,WeatherDisplay:10.37,2013-01-31 15:03:00,
2013-01-31 09:08:00,29.1,23.4,30.17,NW,321,8.1,8.1,79,0.00,BKN,,0.00,58.0,WeatherDisplay:10.37,2013-01-31 15:08:00,
2013-01-31 09:13:00,29.0,23.3,30.17,NW,323,9.2,9.2,79,0.00,BKN,,0.00,62.0,WeatherDisplay:10.37,2013-01-31 15:13:00,
2013-01-31 09:18:00,29.0,23.0,30.18,NW,325,6.9,6.9,78,0.00,BKN,,0.00,76.0,WeatherDisplay:10.37,2013-01-31 15:18:00,
2013-01-31 09:23:00,29.0,23.3,30.18,NNW,348,4.6,4.6,79,0.00,BKN,,0.00,83.0,WeatherDisplay:10.37,2013-01-31 15:23:00,
2013-01-31 09:28:00,29.1,23.1,30.19,NW,311,6.9,6.9,78,0.00,BKN,,0.00,95.0,WeatherDisplay:10.37,2013-01-31 15:28:00,
2013-01-31 09:33:00,29.3,23.3,30.20,NNW,327,9.0,9.0,78,0.00,BKN,,0.00,105.0,WeatherDisplay:10.37,2013-01-31 15:33:00,
2013-01-31 09:38:00,29.3,23.0,30.20,NW,321,10.4,10.4,77,0.00,BKN,,0.00,105.0,WeatherDisplay:10.37,2013-01-31 15:38:00,
2013-01-31 09:43:00,29.3,23.3,30.20,NW,323,5.8,5.8,78,0.00,BKN,,0.00,107.0,WeatherDisplay:10.37,2013-01-31 15:43:00,
2013-01-31 09:48:00,29.4,23.4,30.21,NNW,341,6.9,6.9,78,0.00,BKN,,0.00,125.0,WeatherDisplay:10.37,2013-01-31 15:48:00,
2013-01-31 09:53:00,29.6,23.6,30.21,NNW,331,5.8,5.8,78,0.00,BKN,,0.00,153.0,WeatherDisplay:10.37,2013-01-31 15:53:00,
2013-01-31 09:58:00,29.7,23.1,30.21,NNW,342,11.5,11.5,76,0.00,SCT,,0.00,172.0,WeatherDisplay:10.37,2013-01-31 15:58:00,
2013-01-31 10:03:00,29.8,22.8,30.22,WNW,296,11.5,11.5,75,0.00,SCT,,0.00,169.0,WeatherDisplay:10.37,2013-01-31 16:03:00,
2013-01-31 10:08:00,30.0,23.0,30.22,WNW,292,10.4,10.4,75,0.00,SCT,,0.00,193.0,WeatherDisplay:10.37,2013-01-31 16:08:00,
2013-01-31 10:13:00,30.2,22.9,30.23,NW,322,10.4,10.4,74,0.00,SCT,,0.00,179.0,WeatherDisplay:10.37,2013-01-31 16:13:00,
2013-01-31 10:18:00,30.2,22.9,30.23,ENE,65,10.4,10.4,74,0.00,BKN,,0.00,148.0,WeatherDisplay:10.37,2013-01-31 16:18:00,
2013-01-31 10:23:00,29.9,22.6,30.24,NNW,348,11.5,11.5,74,0.00,BKN,,0.00,181.0,WeatherDisplay:10.37,2013-01-31 16:23:00,
2013-01-31 10:28:00,30.0,22.7,30.25,NNE,33,10.4,10.4,74,0.00,BKN,,0.00,142.0,WeatherDisplay:10.37,2013-01-31 16:28:00,
2013-01-31 10:33:00,29.8,22.2,30.25,NNW,343,8.1,8.1,73,0.00,SCT,,0.00,206.0,WeatherDisplay:10.37,2013-01-31 16:33:00,
2013-01-31 10:38:00,29.7,22.4,30.25,NNW,347,9.2,9.2,74,0.00,BKN,,0.00,139.0,WeatherDisplay:10.37,2013-01-31 16:38:00,
2013-01-31 10:43:00,29.8,22.5,30.26,North,355,11.5,11.5,74,0.00,BKN,,0.00,149.0,WeatherDisplay:10.37,2013-01-31 16:43:00,
2013-01-31 10:48:00,29.7,22.4,30.28,NNW,328,13.0,13.0,74,0.00,BKN,,0.00,128.0,WeatherDisplay:10.37,2013-01-31 16:48:00,
2013-01-31 10:53:00,29.5,22.2,30.28,NE,41,10.0,10.0,74,0.00,BKN,,0.00,81.0,WeatherDisplay:10.37,2013-01-31 16:53:00,
2013-01-31 10:58:00,29.0,21.4,30.27,North,350,13.8,13.8,73,0.00,BKN,,0.00,100.0,WeatherDisplay:10.37,2013-01-31 16:58:00,
2013-01-31 11:03:00,28.8,21.2,30.27,North,355,8.1,8.1,73,0.00,BKN,,0.00,95.0,WeatherDisplay:10.37,2013-01-31 17:03:00,
2013-01-31 11:08:00,28.5,20.9,30.27,NW,315,16.1,16.1,73,0.00,BKN,,0.00,95.0,WeatherDisplay:10.37,2013-01-31 17:08:00,
2013-01-31 11:13:00,28.5,20.9,30.28,NNE,30,15.0,15.0,73,0.00,BKN,,0.00,98.0,WeatherDisplay:10.37,2013-01-31 17:13:00,
2013-01-31 11:18:00,28.3,20.4,30.28,NNW,342,16.1,16.1,72,0.00,BKN,,0.00,67.0,WeatherDisplay:10.37,2013-01-31 17:18:00,
2013-01-31 11:23:00,28.3,20.7,30.29,WNW,302,16.1,16.1,73,0.00,BKN,,0.00,40.0,WeatherDisplay:10.37,2013-01-31 17:23:00,
2013-01-31 11:28:00,28.1,20.9,30.29,NNW,347,11.5,11.5,74,0.00,BKN,,0.00,42.0,WeatherDisplay:10.37,2013-01-31 17:28:00,
2013-01-31 11:33:00,27.9,21.6,30.30,North,10,15.0,15.0,77,0.00,BKN,,0.00,44.0,WeatherDisplay:10.37,2013-01-31 17:33:00,
2013-01-31 11:38:00,27.2,22.4,30.30,NW,325,11.5,11.5,82,0.00,BKN,,0.00,70.0,WeatherDisplay:10.37,2013-01-31 17:38:00,
2013-01-31 11:43:00,26.8,22.6,30.29,North,360,12.0,12.0,84,0.00,BKN,,0.00,93.0,WeatherDisplay:10.37,2013-01-31 17:43:00,
2013-01-31 11:48:00,26.9,22.7,30.29,North,355,12.7,12.7,84,0.00,BKN,,0.00,172.0,WeatherDisplay:10.37,2013-01-31 17:48:00,
2013-01-31 11:53:00,27.2,23.0,30.29,North,355,18.4,18.4,84,0.00,BKN,,0.00,149.0,WeatherDisplay:10.37,2013-01-31 17:53:00,
2013-01-31 11:58:00,27.2,23.0,30.29,NNW,338,17.3,17.3,84,0.00,BKN,,0.00,163.0,WeatherDisplay:10.37,2013-01-31 17:58:00,
2013-01-31 12:03:00,27.4,23.2,30.29,NNE,31,9.2,9.2,84,0.00,BKN,,0.00,156.0,WeatherDisplay:10.37,2013-01-31 18:03:00,
2013-01-31 12:08:00,27.5,22.4,30.30,NNE,12,11.5,11.5,81,0.00,BKN,,0.00,127.0,WeatherDisplay:10.37,2013-01-31 18:08:00,
2013-01-31 12:13:00,27.5,22.4,30.30,NNW,336,14.0,14.0,81,0.00,BKN,,0.00,104.0,WeatherDisplay:10.37,2013-01-31 18:13:00,
2013-01-31 12:18:00,27.5,22.4,30.31,North,10,13.8,13.8,81,0.00,BKN,,0.00,98.0,WeatherDisplay:10.37,2013-01-31 18:18:00,
2013-01-31 12:23:00,27.4,22.0,30.30,NE,41,18.4,18.4,80,0.00,BKN,,0.00,100.0,WeatherDisplay:10.37,2013-01-31 18:23:00,
2013-01-31 12:28:00,27.5,21.8,30.31,North,9,15.0,15.0,79,0.00,BKN,,0.00,139.0,WeatherDisplay:10.37,2013-01-31 18:28:00,
2013-01-31 12:33:00,27.9,21.9,30.32,North,355,13.8,13.8,78,0.00,BKN,,0.00,174.0,WeatherDisplay:10.37,2013-01-31 18:33:00,
2013-01-31 12:38:00,28.2,21.6,30.32,NW,310,15.0,15.0,76,0.00,BKN,,0.00,167.0,WeatherDisplay:10.37,2013-01-31 18:38:00,
2013-01-31 12:43:00,28.3,20.4,30.31,North,350,15.0,15.0,72,0.00,BKN,,0.00,253.0,WeatherDisplay:10.37,2013-01-31 18:43:00,
2013-01-31 12:48:00,28.6,20.7,30.32,North,355,23.0,23.0,72,0.00,BKN,,0.00,211.0,WeatherDisplay:10.37,2013-01-31 18:48:00,
2013-01-31 12:53:00,28.5,20.3,30.33,NE,34,19.6,19.6,71,0.00,BKN,,0.00,155.0,WeatherDisplay:10.37,2013-01-31 18:53:00,
2013-01-31 12:58:00,28.3,20.4,30.33,NE,36,13.0,13.0,72,0.00,BKN,,0.00,113.0,WeatherDisplay:10.37,2013-01-31 18:58:00,
2013-01-31 13:03:00,28.1,19.9,30.33,North,360,19.6,19.6,71,0.00,BKN,,0.00,239.0,WeatherDisplay:10.37,2013-01-31 19:03:00,
2013-01-31 13:08:00,28.1,20.2,30.34,NE,42,12.7,12.7,72,0.00,BKN,,0.00,225.0,WeatherDisplay:10.37,2013-01-31 19:08:00,
2013-01-31 13:13:00,28.1,20.2,30.33,NNW,340,15.0,15.0,72,0.00,BKN,,0.00,211.0,WeatherDisplay:10.37,2013-01-31 19:13:00,
2013-01-31 13:18:00,27.9,20.4,30.34,NNE,22,19.6,19.6,73,0.00,BKN,,0.00,218.0,WeatherDisplay:10.37,2013-01-31 19:18:00,
2013-01-31 13:23:00,27.9,20.0,30.33,NE,41,11.5,11.5,72,0.00,BKN,,0.00,236.0,WeatherDisplay:10.37,2013-01-31 19:23:00,
2013-01-31 13:28:00,27.6,19.4,30.33,NE,34,17.3,17.3,71,0.00,SCT,,0.00,316.0,WeatherDisplay:10.37,2013-01-31 19:28:00,
2013-01-31 13:33:00,27.4,19.6,30.33,ENE,72,13.8,13.8,72,0.00,SCT,,0.00,341.0,WeatherDisplay:10.37,2013-01-31 19:33:00,
2013-01-31 13:38:00,27.4,19.6,30.34,NE,38,21.9,21.9,72,0.00,SCT,,0.00,267.0,WeatherDisplay:10.37,2013-01-31 19:38:00,
2013-01-31 13:43:00,27.2,19.7,30.34,NNE,19,12.7,12.7,73,0.00,SCT,,0.00,360.0,WeatherDisplay:10.37,2013-01-31 19:43:00,
2013-01-31 13:48:00,27.5,19.7,30.34,NNE,24,13.8,13.8,72,0.00,FEW,,0.00,378.0,WeatherDisplay:10.37,2013-01-31 19:48:00,
2013-01-31 13:53:00,27.6,19.8,30.35,North,351,18.0,18.0,72,0.00,SCT,,0.00,251.0,WeatherDisplay:10.37,2013-01-31 19:53:00,
2013-01-31 13:58:00,27.2,18.7,30.35,NNE,32,19.6,19.6,70,0.00,SCT,,0.00,264.0,WeatherDisplay:10.37,2013-01-31 19:58:00,
2013-01-31 14:03:00,27.0,17.8,30.35,NNE,15,17.3,17.3,68,0.00,SCT,,0.00,288.0,WeatherDisplay:10.37,2013-01-31 20:03:00,
2013-01-31 14:08:00,27.0,17.1,30.35,NNE,32,13.8,13.8,66,0.00,SCT,,0.00,250.0,WeatherDisplay:10.37,2013-01-31 20:08:00,
2013-01-31 14:13:00,26.9,16.7,30.34,North,350,16.1,16.1,65,0.00,SCT,,0.00,246.0,WeatherDisplay:10.37,2013-01-31 20:13:00,
2013-01-31 14:18:00,26.4,16.2,30.34,North,360,15.0,15.0,65,0.00,BKN,,0.00,220.0,WeatherDisplay:10.37,2013-01-31 20:18:00,
2013-01-31 14:23:00,26.1,15.2,30.34,NNW,344,15.0,15.0,63,0.00,BKN,,0.00,185.0,WeatherDisplay:10.37,2013-01-31 20:23:00,
2013-01-31 14:28:00,25.8,15.6,30.34,NNE,18,11.5,11.5,65,0.00,BKN,,0.00,142.0,WeatherDisplay:10.37,2013-01-31 20:28:00,
2013-01-31 14:33:00,25.7,14.8,30.34,NNE,18,14.0,14.0,63,0.00,BKN,,0.00,144.0,WeatherDisplay:10.37,2013-01-31 20:33:00,
2013-01-31 14:38:00,25.6,15.1,30.35,North,5,10.4,10.4,64,0.00,FEW,,0.00,353.0,WeatherDisplay:10.37,2013-01-31 20:38:00,
2013-01-31 14:43:00,26.1,15.6,30.35,NNE,19,9.2,9.2,64,0.00,CLR,,0.00,302.0,WeatherDisplay:10.37,2013-01-31 20:43:00,
2013-01-31 14:48:00,26.6,15.3,30.35,NE,46,17.3,17.3,62,0.00,CLR,,0.00,441.0,WeatherDisplay:10.37,2013-01-31 20:48:00,
2013-01-31 14:53:00,26.6,14.6,30.36,NNW,331,19.6,19.6,60,0.00,CLR,,0.00,345.0,WeatherDisplay:10.37,2013-01-31 20:53:00,
2013-01-31 14:58:00,26.7,14.7,30.35,NNW,340,13.8,13.8,60,0.00,FEW,,0.00,311.0,WeatherDisplay:10.37,2013-01-31 20:58:00,
2013-01-31 15:03:00,27.0,14.9,30.36,North,5,18.4,18.4,60,0.00,CLR,,0.00,404.0,WeatherDisplay:10.37,2013-01-31 21:03:00,
2013-01-31 15:08:00,27.1,15.4,30.37,NNW,345,18.4,18.4,61,0.00,FEW,,0.00,318.0,WeatherDisplay:10.37,2013-01-31 21:08:00,
2013-01-31 15:13:00,27.0,15.3,30.37,NE,36,18.4,18.4,61,0.00,FEW,,0.00,274.0,WeatherDisplay:10.37,2013-01-31 21:13:00,
2013-01-31 15:18:00,27.2,15.1,30.37,NNW,329,16.1,16.1,60,0.00,CLR,,0.00,323.0,WeatherDisplay:10.37,2013-01-31 21:18:00,
2013-01-31 15:23:00,27.0,14.6,30.37,NW,312,17.3,17.3,59,0.00,CLR,,0.00,251.0,WeatherDisplay:10.37,2013-01-31 21:23:00,
2013-01-31 15:28:00,27.0,15.3,30.37,North,5,16.1,16.1,61,0.00,FEW,,0.00,265.0,WeatherDisplay:10.37,2013-01-31 21:28:00,
2013-01-31 15:33:00,27.0,14.6,30.38,North,355,19.6,19.6,59,0.00,SCT,,0.00,207.0,WeatherDisplay:10.37,2013-01-31 21:33:00,
2013-01-31 15:38:00,26.8,14.4,30.38,NNW,348,13.8,13.8,59,0.00,SCT,,0.00,211.0,WeatherDisplay:10.37,2013-01-31 21:38:00,
2013-01-31 15:43:00,26.6,14.2,30.39,North,351,17.3,17.3,59,0.00,SCT,,0.00,179.0,WeatherDisplay:10.37,2013-01-31 21:43:00,
2013-01-31 15:48:00,26.3,13.9,30.38,NE,46,11.5,11.5,59,0.00,SCT,,0.00,162.0,WeatherDisplay:10.37,2013-01-31 21:48:00,
2013-01-31 15:53:00,26.2,13.8,30.38,NNE,12,12.7,12.7,59,0.00,FEW,,0.00,232.0,WeatherDisplay:10.37,2013-01-31 21:53:00,
2013-01-31 15:58:00,26.3,13.1,30.38,North,5,17.3,17.3,57,0.00,CLR,,0.00,216.0,WeatherDisplay:10.37,2013-01-31 21:58:00,
2013-01-31 16:03:00,26.0,12.8,30.39,NNW,337,15.0,15.0,57,0.00,SCT,,0.00,151.0,WeatherDisplay:10.37,2013-01-31 22:03:00,
2013-01-31 16:08:00,25.9,11.9,30.39,NNE,12,19.6,19.6,55,0.00,FEW,,0.00,195.0,WeatherDisplay:10.37,2013-01-31 22:08:00,
2013-01-31 16:13:00,25.6,12.1,30.40,NNE,22,19.6,19.6,56,0.00,FEW,,0.00,181.0,WeatherDisplay:10.37,2013-01-31 22:13:00,
2013-01-31 16:18:00,25.6,12.1,30.40,NNW,332,18.0,18.0,56,0.00,FEW,,0.00,169.0,WeatherDisplay:10.37,2013-01-31 22:18:00,
2013-01-31 16:23:00,25.5,11.1,30.40,North,11,18.4,18.4,54,0.00,BKN,,0.00,35.0,WeatherDisplay:10.37,2013-01-31 22:23:00,
2013-01-31 16:28:00,25.5,11.1,30.41,NNW,338,18.4,18.4,54,0.00,BKN,,0.00,33.0,WeatherDisplay:10.37,2013-01-31 22:28:00,
2013-01-31 16:33:00,25.5,11.6,30.40,North,360,10.4,10.4,55,0.00,BKN,,0.00,33.0,WeatherDisplay:10.37,2013-01-31 22:33:00,
2013-01-31 16:38:00,25.6,11.7,30.40,NE,46,11.5,11.5,55,0.00,BKN,,0.00,32.0,WeatherDisplay:10.37,2013-01-31 22:38:00,
2013-01-31 16:43:00,25.4,11.0,30.41,NNW,342,18.4,18.4,54,0.00,BKN,,0.00,30.0,WeatherDisplay:10.37,2013-01-31 22:43:00,
2013-01-31 16:48:00,25.0,10.7,30.41,North,349,20.7,20.7,54,0.00,BKN,,0.00,30.0,WeatherDisplay:10.37,2013-01-31 22:48:00,
2013-01-31 16:53:00,24.9,11.0,30.41,North,360,15.0,15.0,55,0.00,BKN,,0.00,28.0,WeatherDisplay:10.37,2013-01-31 22:53:00,
2013-01-31 16:58:00,24.8,11.7,30.41,NNE,20,13.8,13.8,57,0.00,BKN,,0.00,28.0,WeatherDisplay:10.37,2013-01-31 22:58:00,
2013-01-31 17:03:00,24.7,10.8,30.42,NNE,24,16.1,16.1,55,0.00,BKN,,0.00,26.0,WeatherDisplay:10.37,2013-01-31 23:03:00,
2013-01-31 17:08:00,24.4,10.1,30.42,NNE,24,11.5,11.5,54,0.00,BKN,,0.00,25.0,WeatherDisplay:10.37,2013-01-31 23:08:00,
2013-01-31 17:13:00,24.3,10.0,30.42,WNW,294,11.5,11.5,54,0.00,BKN,,0.00,23.0,WeatherDisplay:10.37,2013-01-31 23:13:00,
2013-01-31 17:18:00,24.2,10.3,30.42,NE,41,11.5,11.5,55,0.00,BKN,,0.00,21.0,WeatherDisplay:10.37,2013-01-31 23:18:00,
2013-01-31 17:23:00,24.0,11.0,30.43,NNW,343,17.3,17.3,57,0.00,BKN,,0.00,19.0,WeatherDisplay:10.37,2013-01-31 23:23:00,
2013-01-31 17:28:00,23.7,11.1,30.44,NNW,336,8.1,8.1,58,0.00,BKN,,0.00,18.0,WeatherDisplay:10.37,2013-01-31 23:28:00,
2013-01-31 17:33:00,23.5,11.3,30.44,NNW,331,6.0,6.0,59,0.00,BKN,,0.00,16.0,WeatherDisplay:10.37,2013-01-31 23:33:00,
2013-01-31 17:38:00,23.1,10.9,30.44,NNE,22,10.4,10.4,59,0.00,SCT,,0.00,12.0,WeatherDisplay:10.37,2013-01-31 23:38:00,
2013-01-31 17:43:00,22.9,10.7,30.43,NW,305,10.0,10.0,59,0.00,CLR,,0.00,11.0,WeatherDisplay:10.37,2013-01-31 23:43:00,
2013-01-31 17:48:00,22.7,10.1,30.44,NNE,24,15.0,15.0,58,0.00,OVC,,0.00,7.0,WeatherDisplay:10.37,2013-01-31 23:48:00,
2013-01-31 17:53:00,22.4,9.4,30.44,NW,320,9.2,9.2,57,0.00,CLR,,0.00,5.0,WeatherDisplay:10.37,2013-01-31 23:53:00,
2013-01-31 17:58:00,22.1,8.8,30.45,NNW,336,14.0,14.0,56,0.00,,,0.00,0.0,WeatherDisplay:10.37,2013-01-31 23:58:00,
2013-01-31 18:03:00,21.9,9.0,30.45,NNW,335,13.8,13.8,57,0.00,,,0.00,0.0,WeatherDisplay:10.37,2013-02-01 00:03:00,
2013-01-31 18:08:00,21.7,8.8,30.45,NNE,22,9.2,9.2,57,0.00,CLR,,0.00,0.0,WeatherDisplay:10.37,2013-02-01 00:08:00,
2013-01-31 18:13:00,21.6,9.1,30.46,NW,324,9.2,9.2,58,0.00,CLR,,0.00,0.0,WeatherDisplay:10.37,2013-02-01 00:13:00,
2013-01-31 18:18:00,21.5,9.4,30.47,North,355,8.1,8.1,59,0.00,CLR,,0.00,0.0,WeatherDisplay:10.37,2013-02-01 00:18:00,
2013-01-31 18:23:00,21.4,9.3,30.47,NNW,347,5.8,5.8,59,0.00,CLR,,0.00,0.0,WeatherDisplay:10.37,2013-02-01 00:23:00,
2013-01-31 18:28:00,21.3,9.2,30.47,NNW,348,6.9,6.9,59,0.00,CLR,,0.00,0.0,WeatherDisplay:10.37,2013-02-01 00:28:00,
2013-01-31 18:33:00,21.2,9.5,30.47,North,351,8.1,8.1,60,0.00,CLR,,0.00,0.0,WeatherDisplay:10.37,2013-02-01 00:33:00,
2013-01-31 18:38:00,21.1,9.4,30.47,NW,321,10.4,10.4,60,0.00,CLR,,0.00,0.0,WeatherDisplay:10.37,2013-02-01 00:38:00,
2013-01-31 18:43:00,20.9,9.2,30.47,NW,312,10.4,10.4,60,0.00,CLR,,0.00,0.0,WeatherDisplay:10.37,2013-02-01 00:43:00,
2013-01-31 18:48:00,20.8,9.1,30.47,NNW,336,4.6,4.6,60,0.00,CLR,,0.00,0.0,WeatherDisplay:10.37,2013-02-01 00:48:00,
2013-01-31 18:53:00,20.7,9.0,30.49,NNE,16,8.1,8.1,60,0.00,CLR,,0.00,0.0,WeatherDisplay:10.37,2013-02-01 00:53:00,
2013-01-31 18:58:00,20.6,9.3,30.49,NNW,328,7.0,7.0,61,0.00,CLR,,0.00,0.0,WeatherDisplay:10.37,2013-02-01 00:58:00,
2013-01-31 19:03:00,20.6,9.3,30.49,NW,321,11.5,11.5,61,0.00,CLR,,0.00,0.0,WeatherDisplay:10.37,2013-02-01 01:03:00,
2013-01-31 19:08:00,20.5,9.2,30.48,NE,35,6.9,6.9,61,0.00,CLR,,0.00,0.0,WeatherDisplay:10.37,2013-02-01 01:08:00,
2013-01-31 19:13:00,20.3,9.3,30.49,NNW,337,5.8,5.8,62,0.00,CLR,,0.00,0.0,WeatherDisplay:10.37,2013-02-01 01:13:00,
2013-01-31 19:18:00,20.3,9.3,30.51,NNW,340,5.8,5.8,62,0.00,CLR,,0.00,0.0,WeatherDisplay:10.37,2013-02-01 01:18:00,
2013-01-31 19:23:00,20.3,9.3,30.51,NNW,333,3.5,3.5,62,0.00,CLR,,0.00,0.0,WeatherDisplay:10.37,2013-02-01 01:23:00,
2013-01-31 19:28:00,20.2,9.2,30.51,NNW,336,8.1,8.1,62,0.00,CLR,,0.00,0.0,WeatherDisplay:10.37,2013-02-01 01:28:00,
2013-01-31 19:33:00,20.1,9.2,30.51,NNW,348,5.8,5.8,62,0.00,CLR,,0.00,0.0,WeatherDisplay:10.37,2013-02-01 01:33:00,
2013-01-31 19:38:00,20.0,9.1,30.51,NW,315,3.5,3.5,62,0.00,CLR,,0.00,0.0,WeatherDisplay:10.37,2013-02-01 01:38:00,
2013-01-31 19:43:00,20.0,8.7,30.52,North,360,3.5,3.5,61,0.00,CLR,,0.00,0.0,WeatherDisplay:10.37,2013-02-01 01:43:00,
2013-01-31 19:48:00,19.9,8.6,30.52,NNW,329,6.0,6.0,61,0.00,CLR,,0.00,0.0,WeatherDisplay:10.37,2013-02-01 01:48:00,
2013-01-31 19:53:00,19.9,8.6,30.53,North,355,4.0,4.0,61,0.00,CLR,,0.00,0.0,WeatherDisplay:10.37,2013-02-01 01:53:00,
2013-01-31 19:58:00,19.8,8.9,30.52,NNW,346,6.0,6.0,62,0.00,CLR,,0.00,0.0,WeatherDisplay:10.37,2013-02-01 01:58:00,
2013-01-31 20:03:00,19.7,8.8,30.52,NNW,346,3.5,3.5,62,0.00,CLR,,0.00,0.0,WeatherDisplay:10.37,2013-02-01 02:03:00,
2013-01-31 20:08:00,19.6,8.7,30.52,NNW,339,4.6,4.6,62,0.00,CLR,,0.00,0.0,WeatherDisplay:10.37,2013-02-01 02:08:00,
2013-01-31 20:13:00,19.5,8.6,30.52,NNW,344,4.0,4.0,62,0.00,CLR,,0.00,0.0,WeatherDisplay:10.37,2013-02-01 02:13:00,
2013-01-31 20:18:00,19.4,8.5,30.53,North,355,0.0,0.0,62,0.00,CLR,,0.00,0.0,WeatherDisplay:10.37,2013-02-01 02:18:00,
2013-01-31 20:23:00,19.3,8.8,30.53,North,355,0.0,0.0,63,0.00,CLR,,0.00,0.0,WeatherDisplay:10.37,2013-02-01 02:23:00,
2013-01-31 20:28:00,19.2,8.7,30.54,NNW,342,3.5,3.5,63,0.00,CLR,,0.00,0.0,WeatherDisplay:10.37,2013-02-01 02:28:00,
2013-01-31 20:33:00,19.1,8.9,30.54,NNW,342,3.5,3.5,64,0.00,CLR,,0.00,0.0,WeatherDisplay:10.37,2013-02-01 02:33:00,
2013-01-31 20:38:00,18.8,9.0,30.53,North,360,3.5,3.5,65,0.00,CLR,,0.00,0.0,WeatherDisplay:10.37,2013-02-01 02:38:00,
2013-01-31 20:43:00,18.7,8.9,30.53,NNW,346,3.5,3.5,65,0.00,CLR,,0.00,0.0,WeatherDisplay:10.37,2013-02-01 02:43:00,
2013-01-31 20:48:00,18.6,8.8,30.53,NNW,346,2.3,2.3,65,0.00,CLR,,0.00,0.0,WeatherDisplay:10.37,2013-02-01 02:48:00,
2013-01-31 20:53:00,18.5,9.0,30.53,NNW,346,0.0,0.0,66,0.00,CLR,,0.00,0.0,WeatherDisplay:10.37,2013-02-01 02:53:00,
2013-01-31 20:58:00,18.4,8.9,30.53,NNW,346,1.1,1.1,66,0.00,CLR,,0.00,0.0,WeatherDisplay:10.37,2013-02-01 02:58:00,
2013-01-31 21:03:00,18.2,9.1,30.53,North,360,2.3,2.3,67,0.00,CLR,,0.00,0.0,WeatherDisplay:10.37,2013-02-01 03:03:00,
2013-01-31 21:08:00,18.1,9.6,30.52,NNE,14,3.0,3.0,69,0.00,CLR,,0.00,0.0,WeatherDisplay:10.37,2013-02-01 03:08:00,
2013-01-31 21:13:00,18.2,9.7,30.52,NNE,21,2.3,2.3,69,0.00,CLR,,0.00,0.0,WeatherDisplay:10.37,2013-02-01 03:13:00,
2013-01-31 21:18:00,18.2,10.1,30.52,NNE,30,3.5,3.5,70,0.00,CLR,,0.00,0.0,WeatherDisplay:10.37,2013-02-01 03:18:00,
2013-01-31 21:23:00,18.3,10.1,30.52,NNE,18,3.5,3.5,70,0.00,CLR,,0.00,0.0,WeatherDisplay:10.37,2013-02-01 03:23:00,
2013-01-31 21:28:00,18.4,10.2,30.52,NNE,31,3.5,3.5,70,0.00,CLR,,0.00,0.0,WeatherDisplay:10.37,2013-02-01 03:28:00,
2013-01-31 21:33:00,18.4,9.9,30.52,NE,34,4.6,4.6,69,0.00,CLR,,0.00,0.0,WeatherDisplay:10.37,2013-02-01 03:33:00,
2013-01-31 21:38:00,18.5,10.0,30.52,NE,37,4.6,4.6,69,0.00,CLR,,0.00,0.0,WeatherDisplay:10.37,2013-02-01 03:38:00,
2013-01-31 21:43:00,18.7,9.9,30.53,ENE,64,2.3,2.3,68,0.00,CLR,,0.00,0.0,WeatherDisplay:10.37,2013-02-01 03:43:00,
2013-01-31 21:48:00,18.8,9.6,30.53,North,355,6.9,6.9,67,0.00,CLR,,0.00,0.0,WeatherDisplay:10.37,2013-02-01 03:48:00,
2013-01-31 21:53:00,18.9,9.7,30.52,North,5,3.5,3.5,67,0.00,CLR,,0.00,0.0,WeatherDisplay:10.37,2013-02-01 03:53:00,
2013-01-31 21:58:00,19.0,9.8,30.52,ENE,58,3.5,3.5,67,0.00,CLR,,0.00,0.0,WeatherDisplay:10.37,2013-02-01 03:58:00,
2013-01-31 22:03:00,18.9,9.4,30.53,NE,54,2.3,2.3,66,0.00,CLR,,0.00,0.0,WeatherDisplay:10.37,2013-02-01 04:03:00,
2013-01-31 22:08:00,18.9,9.4,30.53,NNE,17,3.5,3.5,66,0.00,CLR,,0.00,0.0,WeatherDisplay:10.37,2013-02-01 04:08:00,
2013-01-31 22:13:00,18.8,9.3,30.53,NNE,28,3.5,3.5,66,0.00,CLR,,0.00,0.0,WeatherDisplay:10.37,2013-02-01 04:13:00,
2013-01-31 22:18:00,18.8,9.6,30.53,NNE,28,0.0,0.0,67,0.00,CLR,,0.00,0.0,WeatherDisplay:10.37,2013-02-01 04:18:00,
2013-01-31 22:23:00,18.7,9.9,30.53,NNE,28,0.0,0.0,68,0.00,CLR,,0.00,0.0,WeatherDisplay:10.37,2013-02-01 04:23:00,
2013-01-31 22:28:00,18.6,9.8,30.54,NNE,28,0.0,0.0,68,0.00,CLR,,0.00,0.0,WeatherDisplay:10.37,2013-02-01 04:28:00,
2013-01-31 22:33:00,18.5,9.7,30.53,NNE,28,1.1,1.1,68,0.00,CLR,,0.00,0.0,WeatherDisplay:10.37,2013-02-01 04:33:00,
2013-01-31 22:38:00,18.4,9.9,30.53,NNE,28,1.1,1.1,69,0.00,CLR,,0.00,0.0,WeatherDisplay:10.37,2013-02-01 04:38:00,
2013-01-31 22:43:00,18.2,9.7,30.52,East,80,3.5,3.5,69,0.00,CLR,,0.00,0.0,WeatherDisplay:10.37,2013-02-01 04:43:00,
2013-01-31 22:48:00,18.2,9.7,30.51,ENE,65,2.3,2.3,69,0.00,CLR,,0.00,0.0,WeatherDisplay:10.37,2013-02-01 04:48:00,
2013-01-31 22:53:00,18.3,9.5,30.51,NE,53,4.0,4.0,68,0.00,CLR,,0.00,0.0,WeatherDisplay:10.37,2013-02-01 04:53:00,
2013-01-31 22:58:00,18.4,9.6,30.51,ENE,78,2.3,2.3,68,0.00,CLR,,0.00,0.0,WeatherDisplay:10.37,2013-02-01 04:58:00,
2013-01-31 23:00:00,18.4,9.3,30.52,ENE,78,3.5,3.5,67,0.00,CLR,,0.00,0.0,WeatherDisplay:10.37,2013-02-01 05:00:00,
2013-01-31 23:02:00,18.5,9.4,30.52,ENE,78,3.5,3.5,67,0.00,CLR,,0.00,0.0,WeatherDisplay:10.37,2013-02-01 05:02:00,
2013-01-31 23:03:00,18.5,9.4,30.52,ENE,78,2.3,2.3,67,0.00,CLR,,0.00,0.0,WeatherDisplay:10.37,2013-02-01 05:03:00,
2013-01-31 23:08:00,18.5,9.4,30.51,East,90,3.0,3.0,67,0.00,CLR,,0.00,0.0,WeatherDisplay:10.37,2013-02-01 05:08:00,
2013-01-31 23:13:00,18.6,9.5,30.51,East,96,4.6,4.6,67,0.00,CLR,,0.00,0.0,WeatherDisplay:10.37,2013-02-01 05:13:00,
2013-01-31 23:18:00,18.6,9.5,30.52,East,92,3.0,3.0,67,0.00,CLR,,0.00,0.0,WeatherDisplay:10.37,2013-02-01 05:18:00,
2013-01-31 23:23:00,18.7,9.6,30.51,ENE,62,3.0,3.0,67,0.00,CLR,,0.00,0.0,WeatherDisplay:10.37,2013-02-01 05:23:00,
2013-01-31 23:28:00,18.8,9.3,30.51,ENE,62,3.5,3.5,66,0.00,CLR,,0.00,0.0,WeatherDisplay:10.37,2013-02-01 05:28:00,
2013-01-31 23:33:00,18.8,9.3,30.50,ENE,74,4.6,4.6,66,0.00,CLR,,0.00,0.0,WeatherDisplay:10.37,2013-02-01 05:33:00,
2013-01-31 23:38:00,18.8,9.3,30.50,East,88,5.8,5.8,66,0.00,CLR,,0.00,0.0,WeatherDisplay:10.37,2013-02-01 05:38:00,
2013-01-31 23:43:00,18.8,9.0,30.50,East,97,4.6,4.6,65,0.00,CLR,,0.00,0.0,WeatherDisplay:10.37,2013-02-01 05:43:00,
2013-01-31 23:48:00,18.9,8.7,30.50,East,94,6.9,6.9,64,0.00,CLR,,0.00,0.0,WeatherDisplay:10.37,2013-02-01 05:48:00,
2013-01-31 23:53:00,19.0,9.2,30.50,East,88,5.8,5.8,65,0.00,CLR,,0.00,0.0,WeatherDisplay:10.37,2013-02-01 05:53:00,
2013-01-31 23:58:00,19.0,8.8,30.50,ENE,72,3.5,3.5,64,0.00,CLR,,0.00,0.0,WeatherDisplay:10.37,2013-02-01 05:58:00,